Regional Weather Roundup
Issued by NWS

Home | Current Version | Previous Version | Graphics & Text | Print | Product List | Glossary On
Versions: 1 2 3 4 5 6 7 8 9 10 11 12 13 14 15 16 17 18 19 20 21 22 23 24 25 26 27 28 29 30 31 32 33 34 35 36 37 38 39 40 41 42 43 44 45 46 47 48 49 50
000
ASUS43 KLOT 102208
RWRIL

ILLINOIS REGIONAL WEATHER ROUNDUP
NATIONAL WEATHER SERVICE CHICAGO/ROMEOVILLE IL
400 PM CST SUN DEC 10 2017

NOTE: "FAIR" INDICATES FEW OR NO CLOUDS BELOW 12,000 FEET WITH NO
SIGNIFICANT WEATHER AND/OR OBSTRUCTIONS TO VISIBILITY.

* THESE STATIONS ARE NOT UNDER NWS QUALITY CONTROL. THEY ALSO MAY NOT
  REPORT WEATHER SUCH AS PRECIPITATION OR FOG.

ILZ001-002-007-009-015-016-024-102300-
NORTHWEST ILLINOIS

CITY           SKY/WX    TMP DP  RH WIND       PRES   REMARKS
MOLINE         CLEAR     37  24  59 NW9       30.03R WCI  30
STERLING*      CLOUDY    33  22  63 NW14      30.02R WCI  23
SAVANNA*       CLOUDY    33  22  65 NW8G18    30.03R WCI  25
$$

ILZ003-004-008-010-011-017-018-102300-
NORTH CENTRAL ILLINOIS

CITY           SKY/WX    TMP DP  RH WIND       PRES   REMARKS
ROCKFORD       CLOUDY    32  20  61 NW13      30.01R WCI  22
FREEPORT*      CLOUDY    30  21  67 NW12      30.02R WCI  21
ROCHELLE*      CLOUDY    32  21  65 NW10      30.01R WCI  23
DE KALB*       CLOUDY    31  20  63 NW8       29.99R WCI  24
PERU*          CLOUDY    33  22  63 NW13      30.02R WCI  24
$$

ILZ005-006-012>014-019>023-102300-
NORTHEAST ILLINOIS

CITY           SKY/WX    TMP DP  RH WIND       PRES   REMARKS
CHICAGO-OHARE  MOCLDY    31  20  63 NW10      29.96R WCI  22
CHICAGO-MIDWAY MOCLDY    33  21  61 NW12      29.96R WCI  24
AURORA         CLOUDY    32  21  64 NW12      29.98R WCI  23
LANSING*       CLOUDY    33  24  69 NW9       29.95R WCI  25
WAUKEGAN       MOCLDY    29  20  69 NW10G18   29.96R WCI  20
DUPAGE AIRPORT CLOUDY    31  21  66 NW14      29.97R WCI  21
KANKAKEE*      MOCLDY    35  21  55 NW9       29.97R WCI  28
WHEELING       MOCLDY    31  21  66 NW12      29.98R WCI  22
MORRIS*        CLOUDY    33  22  63 NW10      29.99R WCI  25
ROMEOVILLE*    CLOUDY    32  22  66 N14       29.99R WCI  22
NORTHERLY ISL    N/A     32  21  64 W12         N/A  WCI  23
$$

LMZ740>746-102300-
SOUTHERN LAKE MICHIGAN

STATION/POSITION SKY/WX   TEMP    WIND        PRES    VSBY  WAVE
                          AIR SEA DIR/SP/G                  HT/PER
                          (F)     (DEG/KT/KT) (MB)    (MI)  (FT/S)
HARRISON CRIB              32     310/ 14/ 16   N/A
BURNHAM HARBOR             32     270/  8/ 13   N/A
CALUMET HARBOR             32     300/  9/ 14 1014.2R
BURNS HARBOR               34     310/ 14/ 18 1014.2R
MICHIGAN CITY              33     290/ 17/ 19   N/A
$$

ILZ025>027-034>036-040-047-049-050-058-095>099-102300-
WEST-CENTRAL ILLINOIS

CITY           SKY/WX    TMP DP  RH WIND       PRES   REMARKS
QUINCY         CLOUDY    43  25  49 W8        30.03R
GALESBURG*     CLOUDY    37  26  65 NW7       30.03R WCI  31
MACOMB*        CLOUDY    41  25  53 NW13      30.05R
JACKSONVILLE*  CLOUDY    41  23  48 W12       30.03R
PITTSFIELD*    CLOUDY    45  26  46 W9G18     30.05R
$$

ILZ028>032-037-038-041>044-048-051>054-059>061-102300-
CENTRAL ILLINOIS

CITY           SKY/WX    TMP DP  RH WIND       PRES   REMARKS
PONTIAC        CLEAR     36  23  59 NW14G21   29.99R WCI  27
BLOOMINGTON    CLEAR     37  23  56 NW14      29.99R WCI  28
DECATUR        CLEAR     40  24  53 NW14G21   30.00R
PEORIA         CLEAR     38  24  57 NW7       30.01R WCI  33
LACON*         CLEAR     35  23  62 NW12      30.01R WCI  26
LINCOLN*       CLEAR     40  26  58 NW6       30.01R
SPRINGFIELD    CLOUDY    43  25  49 W10       30.03R
TAYLORVILLE    CLEAR     41  24  50 NW12      30.02R
$$

ILZ033-039-045-046-055>057-062-063-102300-
EAST-CENTRAL ILLINOIS

CITY           SKY/WX    TMP DP  RH WIND       PRES   REMARKS
CHAMPAIGN      CLEAR     39  23  52 W14       29.98R WCI  31
DANVILLE*      CLEAR     37  22  54 W13G18    29.94R WCI  29
RANTOUL*       CLEAR     38  25  57 W9        29.97R WCI  32
MATTOON        CLEAR     41  25  53 W13       29.98R
PARIS*         CLEAR     39  24  55 W14       29.99R WCI  31
$$

ILZ079-100>102-102300-
SOUTHWEST ILLINOIS

CITY           SKY/WX    TMP DP  RH WIND       PRES   REMARKS
ALTON          CLEAR     48  28  46 W14       30.03R
BELLEVILLE     CLEAR     51  25  36 W9        30.02R
CAHOKIA*       CLEAR     51  23  33 W8        30.03R
$$

ILZ064>066-069>071-074>076-080>082-084>086-088>090-092>094-102300-
SOUTH-CENTRAL ILLINOIS

CITY           SKY/WX    TMP DP  RH WIND       PRES   REMARKS
CARBONDALE     CLEAR     48  25  40 SW10      30.04R
CAIRO*         CLEAR     49  32  51 SW12G21   30.08R
EFFINGHAM*     CLEAR     43  26  51 W9        30.03R
MARION         CLEAR     50  27  40 SW17      30.04S
MT. VERNON     CLEAR     45  27  49 SW7       30.03
CENTRALIA*     CLEAR     48  28  45 W7        30.01R
SALEM*         CLEAR     47  26  43 W8        30.02R
METROPOLIS*    CLEAR     49  30  47 SW14G22   30.08R
$$

ILZ067-068-072-073-078-083-087-091-102300-
SOUTHEAST ILLINOIS

CITY           SKY/WX    TMP DP  RH WIND       PRES   REMARKS
LAWRENCEVILLE  CLEAR     44  24  45 SW12      30.01R
FLORA*         CLEAR     47  27  44 W8        30.02R
FAIRFIELD*     CLEAR     46  26  45 SW6       30.02R
HARRISBURG*    CLEAR     47  29  49 SW10G23   30.04S
ROBINSON*      CLEAR     41  25  52 W13       30.01R
CARMI*         CLEAR     46  27  48 SW10      30.03R
$$

ABBREVIATIONS USED IN REMARKS
   TC - TEMPERATURE IN CELSIUS
  WCI - WIND CHILL INDEX
   HX - HEAT INDEX
  VSB - VISIBILITY
$$





USA.gov is the U.S. government's official web portal to all federal, state and local government web resources and services.